This is the latest recevied weather packets stored in our database for station/object N3WMC. If no packets are shown the sender has not sent any weather packets the latest 1 day(s).
| Time | Temp. | Humidity | Pressure | Rain* | Wind** | Luminosity | Snow |
|---|---|---|---|---|---|---|---|
| 1778080095 | 10° C | 96% | 1009.8 hPa | 0 mm | - | 119 W/m² | - |
| 1778079489 | 10.56° C | 96% | 1009.4 hPa | 0 mm | - | 105 W/m² | - |
| 1778078883 | 10° C | 97% | 1009 hPa | 0 mm | - | 57 W/m² | - |
| 1778078278 | 10° C | 97% | 1009.1 hPa | 0 mm | - | 87 W/m² | - |
| 1778077069 | 10° C | 97% | 1008.8 hPa | 0 mm | - | 84 W/m² | - |
| 1778076464 | 10° C | 97% | 1008.5 hPa | 0 mm | - | 77 W/m² | - |
| 1778076161 | 10° C | 97% | 1008.5 hPa | 0 mm | - | 79 W/m² | - |
| 1778075554 | 10.56° C | 97% | 1008.3 hPa | 0 mm | - | 44 W/m² | - |
| 1778075251 | 10.56° C | 97% | 1008.2 hPa | 1.27 mm | - | 30 W/m² | - |
| 1778073129 | 11.11° C | 96% | 1008 hPa | 0 mm | - | 13 W/m² | - |
| 1778072826 | 11.67° C | 96% | 1007.5 hPa | 0 mm | - | 14 W/m² | - |
| 1778072523 | 11.67° C | 96% | 1007 hPa | 0 mm | - | 19 W/m² | - |
| 1778072221 | 11.67° C | 96% | 1006.6 hPa | 0 mm | - | 28 W/m² | - |
| 1778068290 | 13.89° C | 96% | 1006.9 hPa | 0 mm | - | 15 W/m² | - |
| 1778064656 | 13.33° C | 97% | 1007 hPa | 4.32 mm | - | 1 W/m² | - |
| 1778064051 | 13.33° C | 97% | 1007.1 hPa | 3.05 mm | - | 1 W/m² | - |
| 1778063748 | 13.33° C | 97% | 1006.8 hPa | 3.05 mm | - | 1 W/m² | - |
| 1778063445 | 13.33° C | 97% | 1007 hPa | 4.83 mm | - | 1 W/m² | - |
| 1778062841 | 13.33° C | 97% | 1007 hPa | 6.1 mm | - | 0 W/m² | - |
| 1778062234 | 13.33° C | 97% | 1006.9 hPa | 6.1 mm | - | 0 W/m² | - |
| 1778061630 | 13.33° C | 96% | 1007 hPa | 3.05 mm | - | 0 W/m² | - |
| 1778061329 | 13.33° C | 96% | 1006.9 hPa | 3.05 mm | - | 0 W/m² | - |
| 1778060420 | 13.33° C | 96% | 1007 hPa | 4.83 mm | - | 0 W/m² | - |
| 1778059513 | 13.89° C | 96% | 1007.1 hPa | 4.83 mm | - | 0 W/m² | - |
| 1778059209 | 13.89° C | 96% | 1007.2 hPa | 4.32 mm | - | 0 W/m² | - |
* Rain latest hour (hover to see other rain measurements)
** Current wind speed in m/s (hover to see current wind gust speed)